Location: Phoenix
(33.4480°N, 112.0730°W)
Time: 22:06:27
(UTC-07:00)

ISS - All Passes

Search period start: 27 August 2014 00:00
Search period end: 06 September 2014 00:00
Orbit: 414 x 419 km, 51.6° (Epoch: 27 August)

Date Brightness Start Highest point End Pass type
(mag) Time Alt. Az. Time Alt. Az. Time Alt. Az.
27 Aug - 09:56:50 10° SSE 09:58:22 13° SE 09:59:54 10° E daylight
27 Aug - 11:31:35 10° WSW 11:34:47 44° NW 11:37:59 10° NE daylight
27 Aug - 18:03:45 10° NNW 18:06:43 29° NE 18:09:40 10° E daylight
27 Aug - 19:40:45 10° WNW 19:43:19 21° SW 19:45:53 10° S visible
28 Aug - 10:43:01 10° SW 10:46:20 89° NW 10:49:40 10° NE daylight
28 Aug - 12:22:23 10° NW 12:23:30 11° NNW 12:24:37 10° N daylight
28 Aug - 17:15:46 10° NNW 17:18:08 18° NNE 17:20:30 10° ENE daylight
28 Aug - 18:51:51 10° WNW 18:55:00 40° SW 18:58:08 10° SSE daylight
29 Aug - 09:54:46 10° SSW 09:57:55 43° SE 10:01:06 10° ENE daylight
29 Aug - 11:32:32 10° WNW 11:34:48 17° NNW 11:37:05 10° N daylight
29 Aug - 16:28:08 10° N 16:29:26 12° NNE 16:30:45 10° NE daylight
29 Aug - 18:03:14 10° NW 18:06:34 85° SW 18:09:53 10° SE daylight
30 Aug - 09:06:54 10° S 09:09:31 22° SE 09:12:10 10° ENE daylight
30 Aug - 10:43:15 10° W 10:46:08 27° NW 10:49:02 10° NNE daylight
30 Aug - 17:14:48 10° NW 17:18:02 47° NE 17:21:15 10° ESE daylight
30 Aug - 18:53:06 10° WSW 18:54:25 12° SW 18:55:44 10° SSW daylight
31 Aug - 08:19:59 10° SSE 08:21:08 11° SE 08:22:18 10° ESE daylight
31 Aug - 09:54:17 10° WSW 09:57:30 49° NW 10:00:45 10° NE daylight
31 Aug - 16:26:30 10° NNW 16:29:23 26° NE 16:32:15 10° E daylight
31 Aug - 18:03:20 10° WNW 18:06:01 23° SW 18:08:41 10° S daylight
01 Sep - 09:05:35 10° SW 09:08:54 82° SE 09:12:13 10° NE daylight
01 Sep - 10:44:38 10° NW 10:46:00 12° NNW 10:47:23 10° N daylight
01 Sep - 15:38:23 10° N 15:40:37 17° NNE 15:42:51 10° ENE daylight
01 Sep - 17:14:18 10° WNW 17:17:30 45° SW 17:20:41 10° SSE daylight
02 Sep - 08:17:13 10° SSW 08:20:19 38° SE 08:23:26 10° ENE daylight
02 Sep - 09:54:45 10° W 09:57:09 18° NNW 09:59:33 10° NNE daylight
02 Sep - 14:50:44 10° N 14:51:44 11° NNE 14:52:44 10° NE daylight
02 Sep - 16:25:34 10° NW 16:28:54 85° NE 16:32:13 10° SE daylight
03 Sep - 07:29:16 10° S 07:31:45 20° SE 07:34:15 10° E daylight
03 Sep - 09:05:21 10° W 09:08:19 30° NW 09:11:18 10° NNE daylight
03 Sep - 15:36:59 10° NNW 15:40:10 42° NE 15:43:21 10° ESE daylight
03 Sep - 17:14:54 10° W 17:16:35 13° SW 17:18:16 10° SSW daylight
04 Sep - 06:42:54 10° SE 06:43:12 10° SE 06:43:31 10° ESE daylight
04 Sep - 08:16:15 10° WSW 08:19:31 55° NW 08:22:48 10° NE daylight
04 Sep - 14:48:33 10° NNW 14:51:20 24° NE 14:54:07 10° E daylight
04 Sep - 16:25:11 10° WNW 16:28:00 25° SW 16:30:48 10° S daylight
05 Sep - 07:27:27 10° SW 07:30:45 72° SE 07:34:04 10° NE daylight
05 Sep - 09:06:10 10° WNW 09:07:47 13° NNW 09:09:25 10° N daylight
05 Sep - 14:00:18 10° N 14:02:23 15° NNE 14:04:27 10° ENE daylight
05 Sep - 15:36:04 10° NW 15:39:18 52° SW 15:42:32 10° SSE daylight
